SCP
0 0 0 0 0 0 0 0 0 0 0 0 0 0 0 0 0 0 0 0 0 0 0 0 0 0 0 0 0 0 0 0 -0 -0 -0 0 0 0 0 -0 0 0 0 0 0 0 0 0 0 0 -0 -0 -0 0
0 0 0 0 0 0 0 0 0 0 0 0 0 0 0 0 0 0 0 0 0 0 0 0 0 0 0 0 0 0 0 0 -0 -0 -0 0 -0 -0 0 0 -0 0 0 0 0 0 0 0 0 0 0 0 0 0
0 0 0 0 0 0 0 0 0 0 0 0 0 0 0 0 0 0 0 0 0 0 0 0 0 0 0 -0 -0 0 0 0 -0 -0 -0 -0 0 0 0 0 0 0 0 0 0 0 0 0 0 0 0 0 0 0
0 0 0 0 0 0 0 0 0 0 0 0 0 0 0 0 0 0 0 0 0 0 0 0 -0 -0 0 0 0 -0 -0 0 0 0 -0 0 -0 0 0 0 0 0 0 0 0 0 0 0 -0 0 0 0 0 0
0 0 0 0 0 0 0 0 0 0 0 0 0 0 0 0 0 0 0 0 0 0 0 0 -0 0 0 0 0 -0 -0 0 0 0 0 -0 0 0 -0 0 0 0 0 0 0 -0 0 -0 -0 0 0 0 0 0
0 0 0 0 0 0 0 0 0 0 0 0 0 0 0 0 0 0 0 0 0 0 0 0 0 0 0 -0 -0 0 0 0 0 0 0 0 0 -0 0 0 0 0 -0 -0 0 0 0 -0 0 -0 -0 -0 0 0
0 0 0 0 0 0 0 0 0 0 0 0 0 0 0 0 0 0 0 0 0 0 0 0 0 0 0 -0 0 0 0 0 0 0 0 0 0 0 0 0 -0 0 0 0 -0 -0 -0 -0 -0 0 -0 0 0 0
0 0 0 0 0 0 0 0 0 0 0 0 0 0 0 0 0 0 0 0 0 0 0 0 0 0 0 0 0 0 0 0 0 0 0 0 0 0 0 -0 -0 -0 -0 -0 -0 -0 -0 0 -0 0 0 0 0 0
0 0 0 0 0 0 0 0 0 0 0 0 0 0 0 0 0 0 0 0 0 0 0 0 0 0 0 0 -0 0 0 0 0 0 0 0 0 0 -0 -0 0 -0 -0 -0 -0 0 0 -0 -0 0 0 0 0 0
0 0 0 0 0 0 0 0 0 0 0 0 0 0 0 0 0 0 0 0 0 0 0 0 0 0 0 0 0 0 0 0 0 0 0 0 0 -0 0 -0 0 0 -0 -0 -0 -0 0 0 0 0 0 0 0 0
0 0 0 0 0 0 0 0 0 0 0 0 0 0 0 0 0 0 0 0 0 0 0 0 0 -0 0 0 0 0 0 0 0 0 0 0 0 0 0 0 0 0 -0 0 0 0 0 0 0 0 0 0 0 0
0 0 0 0 0 0 0 0 0 0 0 0 0 0 0 0 0 0 0 0 0 0 0 0 0 0 0 0 0 0 0 0 0 0 0 0 0 0 0 0 0 -0 -0 -0 0 0 0 0 0 0 0 0 0 0
0 0 0 0 0 0 0 0 0 0 0 0 0 0 0 0 0 0 0 0 0 0 0 0 0 0 0 0 0 0 0 0 0 0 0 0 0 0 0 0 0 0 0 0 0 0 0 0 0 0 0 0 0 0
0 0 0 0 0 0 0 0 0 0 0 0 0 0 0 0 0 0 -0 0 0 0 0 0 0 0 0 0 0 0 0 0 0 0 0 0 0 0 0 0 0 0 0 0 0 0 0 0 0 0 0 0 0 0
0 0 0 0 0 0 0 0 0 0 0 0 0 0 0 0 0 0 0 0 0 0 0 0 0 0 0 0 0 0 0 0 0 0 0 0 0 0 0 0 0 0 0 0 0 0 0 0 0 0 0 0 0 0
0 0 0 0 0 0 0 0 0 0 0 0 0 0 0 0 0 0 0 0 0 0 0 0 0 0 0 0 0 0 0 -0 0 0 0 0 0 0 0 0 0 0 0 0 0 0 0 0 0 0 0 0 0 0
0 0 0 0 0 0 0 0 0 0 0 0 0 0 0 0 0 0 0 0 0 0 0 0 0 0 0 0 0 0 0 0 0 0 0 0 0 0 0 0 0 0 0 0 0 0 0 0 0 0 0 0 0 0
0 0 0 0 0 0 0 0 0 0 0 0 0 0 0 0 0 0 0 0 0 0 0 0 0 0 0 -0 -0 0 0 0 0 0 0 0 0 0 0 0 0 0 0 0 0 0 0 0 0 0 0 0 0 0
0 0 0 0 0 0 0 0 0 0 0 0 -0 0 0 0 0 0 0 0 0 0 0 0 0 0 0 0 0 0 -0 -0 -0 0 0 0 0 0 0 0 0 0 0 0 0 0 0 0 0 0 0 0 0 0
0 0 0 0 0 0 0 0 0 0 0 0 0 -0 0 0 0 0 0 0 0 0 0 0 0 0 -0 -0 -0 -0 0 0 0 0 0 0 0 0 0 0 0 0 0 0 0 0 0 0 0 0 0 0 0 0
0 0 0 0 0 0 0 0 0 0 0 0 0 0 0 0 0 0 0 0 0 0 0 0 0 -0 -0 -0 -0 -0 0 0 0 0 -0 -0 0 0 0 0 0 0 0 0 0 0 0 0 0 0 0 0 0 0
0 0 0 0 0 0 0 0 0 0 0 0 0 0 0 0 0 0 0 0 0 0 0 0 0 0 -0 -0 -0 -0 0 0 -0 -0 -0 0 0 0 0 0 0 0 0 0 0 0 0 0 0 0 0 0 0 0
0 0 0 0 0 0 0 0 0 0 0 0 0 0 0 0 0 0 0 -0 -0 -0 -0 0 0 0 -0 -0 -0 -0 0 0 0 -0 -0 0 0 0 0 0 0 0 0 0 0 0 0 0 0 0 0 0 0 0
0 0 0 0 0 0 0 0 0 0 0 0 0 0 0 -0 -0 -0 0 0 0 0 0 0 0 0 -0 -0 -0 -0 -0 0 0 0 0 0 0 0 0 0 0 0 0 0 0 0 0 0 0 0 0 0 0 0
0 0 0 0 0 0 0 0 0 0 0 0 0 0 -0 -0 -0 0 0 0 0 0 0 0 0 -0 0 0 0 0 -0 0 0 0 0 0 0 0 0 0 0 0 0 0 0 0 0 0 0 0 0 0 0 0
0 0 0 0 0 0 0 0 0 0 0 0 0 0 0 0 0 0 0 0 0 0 0 0 0 -0 -0 0 0 0 0 0 0 0 0 0 0 0 0 0 0 0 0 0 0 0 0 0 -0 -0 0 0 0 0
0 0 0 0 0 0 0 0 0 0 0 0 0 0 0 0 0 0 0 0 0 0 0 0 0 0 -0 -0 -0 -0 0 0 0 0 0 0 0 0 0 0 0 0 0 0 0 0 0 0 0 0 0 0 0 0
0 0 0 0 0 0 0 0 0 -0 0 0 0 0 0 0 0 0 0 0 0 0 0 0 0 -0 -0 -0 0 0 0 0 0 0 0 0 0 0 0 0 0 0 0 0 0 0 0 0 0 0 0 0 0 0
0 0 0 0 -0 -0 -0 -0 0 0 0 0 0 0 0 0 0 0 0 0 -0 -0 -0 -0 -0 -0 -0 -0 -0 -0 0 0 0 0 0 0 0 0 0 0 0 0 0 0 0 0 0 0 0 0 0 0 0 0
0 -0 0 0 0 0 0 0 0 0 0 0 0 0 0 0 0 0 0 0 0 0 -0 -0 0 -0 -0 0 -0 -0 -0 0 0 0 0 0 0 0 0 0 0 0 0 0 0 0 0 0 0 0 0 0 0 0
0 0 0 0 0 0 0 0 0 0 0 0 0 0 0 0 0 0 0 0 0 0 -0 -0 0 -0 0 0 0 0 0 -0 0 0 0 0 0 0 0 0 0 0 0 0 0 0 0 0 0 0 0 0 0 0
0 0 0 0 0 0 0 0 0 -0 -0 0 0 0 0 0 -0 0 0 -0 -0 -0 -0 0 0 0 0 0 0 0 0 0 0 0 0 0 0 0 0 0 0 0 0 0 0 0 0 0 0 0 0 0 0 0
0 0 0 0 0 0 0 0 0 0 0 0 -0 -0 -0 0 -0 0 -0 -0 0 0 0 0 0 0 0 0 0 0 0 0 0 0 0 0 0 0 0 0 0 0 0 0 0 0 0 0 0 0 0 0 0 0
Wind_Speed_500mb
54 50 41 37 37 32 29 29 25 23 27 27 28 27 23 21 19 15 11 13 12 15 54 62 47 23 25 16 4 18 17 11 11 8 5 5 2 4 2 5 7 4 7 5 6 10 9 48 3 4 3 27 15 6
52 51 44 39 37 32 31 28 23 21 24 24 28 27 25 23 21 16 13 21 19 29 46 58 67 73 74 64 49 13 12 15 5 7 3 3 4 3 3 7 6 3 6 3 5 6 8 22 19 28 26 16 19 32
53 48 43 40 37 33 31 27 23 23 24 23 31 26 27 23 20 19 16 19 27 30 56 27 15 6 12 31 46 28 21 13 8 2 6 2 6 6 4 6 3 3 7 5 7 6 6 23 28 34 22 17 16 21
52 46 44 40 37 33 29 26 23 20 23 24 31 28 26 22 18 18 16 13 19 13 11 18 24 41 18 26 29 41 52 19 16 15 8 7 6 16 9 8 5 10 8 7 6 17 24 24 12 22 6 6 14 15
49 49 44 41 38 33 28 26 21 23 20 27 29 27 25 20 16 15 17 13 19 10 10 34 60 16 16 12 25 30 50 56 49 10 2 7 6 7 6 4 6 12 7 7 8 43 27 32 27 23 15 6 6 8
51 50 48 43 36 31 27 24 17 23 26 29 28 27 23 18 14 8 8 8 10 10 11 8 22 26 21 23 26 31 45 54 47 10 9 11 7 3 2 5 10 17 19 13 6 30 15 4 20 23 12 6 9 9
54 51 50 41 36 28 27 23 21 24 30 26 28 20 24 21 17 13 4 11 11 13 8 15 17 15 29 20 17 30 36 22 24 31 13 19 41 3 2 7 17 20 21 20 19 9 18 20 10 10 17 7 3 3
56 52 44 41 34 30 27 21 26 29 25 28 29 24 23 16 16 19 10 16 15 9 9 5 9 16 33 3 12 26 27 23 15 25 17 6 9 5 5 18 30 22 18 21 22 22 10 17 27 25 19 11 11 5
58 58 54 43 39 34 27 25 32 32 31 27 29 22 16 13 9 2 4 7 15 12 6 6 4 7 25 15 9 8 17 4 13 9 15 8 4 6 14 30 35 35 23 15 8 16 35 38 26 14 15 17 14 13
50 52 53 35 36 32 29 31 37 35 36 32 25 13 8 3 12 5 4 6 12 11 12 11 10 7 17 14 11 11 8 7 2 11 14 9 9 15 24 46 41 25 17 11 12 32 22 23 19 17 18 19 16 14
51 47 43 40 34 31 30 39 42 43 40 33 14 8 9 12 9 6 7 10 11 7 15 16 32 13 12 3 7 5 7 3 1 9 8 1 3 2 34 33 29 19 14 13 4 5 6 18 21 15 12 11 11 7
49 45 44 39 35 34 37 44 44 52 34 19 14 18 12 6 7 4 6 8 9 9 11 12 18 22 10 13 3 11 5 5 4 8 4 2 6 30 32 30 21 14 11 3 7 20 25 27 20 18 16 11 7 6
48 45 41 38 38 38 39 45 42 42 31 34 8 5 4 5 1 8 8 7 5 9 10 15 4 8 10 14 10 6 8 6 25 1 2 7 6 31 26 29 34 30 31 33 37 34 27 24 21 14 12 14 15 9
47 43 40 39 38 36 46 48 48 41 23 8 10 4 7 8 9 10 8 7 15 25 8 19 5 4 5 2 7 5 5 4 5 2 7 3 20 34 36 39 35 36 27 28 24 21 20 13 8 8 13 13 24 21
43 45 39 37 36 36 56 56 52 47 10 11 10 8 12 25 21 21 34 39 48 44 25 7 1 4 5 2 2 4 5 7 8 6 4 34 37 22 28 26 29 27 28 26 16 12 7 7 10 10 10 21 19 6
45 40 38 36 34 51 55 58 52 40 7 5 10 7 16 7 18 26 33 17 20 19 8 7 2 1 1 3 1 1 7 10 10 5 31 34 33 25 19 15 14 15 16 20 17 15 10 9 9 10 11 9 6 13
37 20 38 40 50 50 46 54 34 8 7 8 11 17 25 28 24 30 27 23 24 10 4 3 2 4 3 4 2 2 5 7 41 27 38 32 27 24 18 11 8 15 18 18 19 12 10 8 4 5 9 6 5 6
32 32 39 46 57 50 49 16 12 10 10 16 14 13 8 23 29 25 16 7 14 11 4 1 4 3 4 6 4 7 7 36 52 26 29 23 16 12 5 12 12 8 7 6 5 9 7 5 5 9 14 11 13 11
31 32 41 45 60 34 11 9 6 4 19 17 21 35 35 37 32 26 7 1 9 13 6 7 3 2 2 6 12 23 19 21 41 10 16 13 14 10 11 11 13 12 10 11 11 13 14 11 10 16 15 15 19 14
37 26 39 50 50 11 11 9 16 6 8 11 21 23 18 24 29 27 3 6 6 4 4 0 2 4 5 19 18 22 22 16 13 6 10 6 8 11 14 14 15 14 14 13 11 8 11 8 12 17 21 15 18 27
34 41 49 48 31 8 7 12 13 12 14 11 19 27 16 21 24 23 8 7 3 7 6 6 8 6 4 8 4 7 19 13 4 23 36 17 17 13 17 16 12 11 14 9 14 11 12 19 20 15 18 23 20 23
45 49 45 31 11 2 4 14 9 5 8 15 11 5 5 4 5 6 11 5 7 11 13 9 13 8 13 9 8 8 26 27 21 22 11 4 1 6 18 16 10 7 9 11 17 22 18 13 10 12 18 19 23 22
50 40 26 8 8 7 8 8 11 8 6 4 6 2 4 4 3 4 4 6 6 9 22 18 11 6 4 10 7 10 20 25 17 10 8 7 12 9 4 8 10 10 8 10 14 16 19 21 24 22 23 28 28 26
37 11 7 6 5 6 6 7 10 5 2 1 1 3 2 6 3 5 4 5 8 12 11 23 23 18 18 32 23 28 21 8 9 11 6 17 5 8 17 16 7 12 7 10 17 27 19 19 19 23 25 20 18 19
7 8 7 9 12 7 6 4 3 3 6 6 3 6 5 8 2 3 5 5 5 14 15 17 22 30 28 19 21 23 10 11 15 12 3 12 14 13 5 4 9 15 10 18 14 18 19 22 19 17 17 17 16 15
5 10 11 11 10 8 6 7 9 7 5 7 7 3 2 3 4 4 4 10 17 18 13 6 19 26 25 14 9 6 14 17 4 7 4 4 2 4 8 13 16 10 11 12 10 13 19 20 20 25 23 24 22 23
7 8 8 11 3 3 4 3 6 3 6 6 4 5 3 5 4 7 9 18 21 23 20 12 9 7 10 10 18 21 8 14 16 8 8 6 9 11 15 18 20 15 16 23 31 35 29 27 26 22 24 25 32 34
6 5 8 13 9 6 5 6 7 7 8 14 5 8 6 7 8 9 21 26 15 11 26 27 24 18 4 10 16 14 10 11 13 9 3 3 8 15 21 12 22 21 24 32 40 27 24 38 26 27 33 35 40 37
9 12 18 12 6 6 7 4 7 10 14 23 8 7 11 26 39 24 21 37 29 30 32 24 20 14 10 19 17 11 7 9 7 4 10 18 18 12 16 11 13 21 26 28 24 29 38 28 14 21 31 37 38 42
13 34 8 12 9 15 24 38 13 49 58 60 57 57 61 59 55 49 44 38 38 33 20 22 25 26 32 20 13 6 10 10 15 13 16 18 12 19 22 21 23 17 16 22 26 24 30 36 22 23 27 25 27 26
19 34 26 27 21 47 58 66 61 56 59 59 55 61 45 51 62 51 44 39 36 27 28 28 32 32 30 33 29 24 20 13 9 6 8 11 18 22 23 22 21 25 21 18 20 18 15 14 15 17 20 21 19 14
34 43 38 21 33 52 68 59 52 55 51 50 39 36 32 39 42 43 37 35 33 32 35 28 24 24 21 22 18 18 20 20 10 7 12 20 29 31 30 22 18 18 16 15 11 10 16 18 17 17 12 10 5 8
44 35 27 21 29 34 37 36 42 44 52 44 44 40 40 27 10 14 21 21 26 31 27 26 23 15 12 15 19 23 19 14 12 16 20 19 19 22 20 18 18 17 17 19 24 27 30 29 26 23 20 21 23 26
Wind_Direction_500mb
249 246 239 240 245 249 254 260 263 259 248 242 216 216 220 238 254 256 178 248 279 272 278 280 267 243 273 284 230 314 347 348 13 59 58 311 71 306 352 195 303 342 349 353 318 42 3 345 93 298 213 148 162 204
244 235 231 232 239 244 250 254 258 247 244 232 207 211 222 235 246 255 233 209 276 279 268 283 280 272 269 265 258 292 292 299 258 97 225 229 346 343 286 332 186 351 163 226 68 173 260 348 58 65 71 105 109 108
236 232 225 228 233 238 244 249 248 247 235 216 201 207 219 231 242 253 259 273 279 298 303 275 301 23 272 253 252 229 263 229 236 14 144 148 265 144 356 272 288 257 162 169 134 47 34 29 67 73 53 78 84 81
227 230 221 224 231 234 238 241 243 240 221 208 191 206 218 231 247 254 265 277 300 300 282 290 264 301 265 230 244 254 240 229 262 276 221 198 222 194 203 226 169 195 132 151 93 115 65 51 107 76 187 127 75 136
222 225 217 220 229 230 233 237 236 226 211 186 195 201 215 223 244 255 283 283 247 252 285 289 307 260 220 239 232 232 233 241 259 247 196 244 181 143 241 68 279 166 186 181 211 180 152 196 202 266 184 206 171 153
222 224 217 215 223 227 228 229 226 203 186 187 198 204 210 216 237 250 181 144 156 228 286 306 311 303 235 246 237 238 232 241 232 236 239 259 253 233 153 193 258 223 208 177 187 185 162 197 169 172 215 226 241 249
217 218 212 211 210 216 223 216 203 189 180 188 192 202 204 220 226 220 204 167 205 250 265 300 296 285 312 259 231 220 227 228 234 246 237 246 273 202 155 205 226 218 247 214 211 206 226 212 219 237 269 252 65 45
214 208 200 203 203 207 211 200 186 177 178 186 186 207 202 223 250 260 235 228 226 276 240 273 275 308 10 256 191 227 220 232 231 232 259 232 290 201 243 246 184 186 223 227 229 238 224 176 156 126 118 88 62 50
209 199 194 194 199 196 194 187 178 176 176 179 174 183 197 230 226 154 237 229 220 239 274 265 264 275 349 357 306 258 210 192 226 186 229 196 259 220 230 189 187 190 200 190 313 228 162 144 131 109 73 58 69 69
197 199 190 179 195 188 184 179 176 172 174 169 174 167 197 179 164 178 234 223 205 211 225 243 259 268 334 336 327 320 228 206 244 241 155 166 241 269 246 188 172 176 209 250 233 155 155 140 146 124 87 84 70 90
177 177 181 189 185 183 175 173 166 163 162 163 171 169 143 143 179 231 228 196 193 234 218 236 225 226 265 185 256 260 294 247 189 274 140 201 327 109 152 166 166 169 199 203 195 211 175 155 148 128 131 117 83 84
173 179 184 183 181 175 175 169 169 172 165 161 145 126 144 192 230 243 230 248 188 229 213 201 218 212 238 232 197 339 277 345 247 320 73 83 236 143 148 149 131 125 118 137 158 130 132 134 143 139 140 142 125 100
176 179 177 177 180 174 171 166 169 170 157 144 118 151 156 209 143 215 220 239 230 224 211 177 217 204 222 228 88 83 288 289 318 350 241 227 111 152 145 129 110 103 99 97 105 128 134 146 160 177 203 204 215 221
171 170 174 175 178 173 163 159 175 166 145 126 164 146 212 208 230 206 220 208 268 301 265 179 168 232 316 69 153 153 244 277 312 311 220 161 106 115 129 122 117 106 101 99 102 111 120 140 160 219 254 252 262 260
161 164 176 175 175 165 160 172 173 173 162 173 172 214 218 234 259 270 255 268 279 284 252 144 218 204 287 90 28 85 35 349 283 222 220 138 127 142 121 119 109 108 106 105 100 83 52 8 0 343 329 310 279 222
165 169 175 172 163 157 163 175 181 178 186 220 231 272 291 272 288 290 287 279 347 354 319 135 89 48 296 117 29 252 159 176 247 237 142 141 132 132 130 121 105 102 98 99 90 71 50 25 8 353 347 359 114 188
155 148 169 160 158 167 170 176 173 185 205 242 250 246 279 290 276 300 328 1 351 274 308 119 142 226 96 47 296 132 256 279 306 172 150 156 161 159 162 151 115 115 107 81 71 75 48 15 303 324 352 338 214 212
140 140 153 160 158 161 158 145 143 194 243 256 261 274 309 276 295 312 12 220 354 250 243 213 352 14 215 185 179 225 307 341 331 196 153 151 165 161 148 142 137 142 180 143 31 7 13 360 290 313 303 276 227 226
142 144 155 161 157 142 140 161 132 240 245 261 270 275 279 295 312 346 295 148 307 358 6 7 52 117 287 45 357 346 11 355 298 178 139 146 169 174 181 183 192 215 235 267 305 319 307 295 286 291 288 261 245 250
125 131 154 153 155 130 132 145 190 247 261 254 270 276 261 265 281 304 281 23 9 1 11 311 254 72 73 72 40 356 343 355 324 246 168 167 210 222 232 253 254 260 291 305 317 2 352 334 289 295 262 253 259 249
130 140 150 158 163 135 190 172 188 217 246 260 285 259 247 243 281 277 253 319 216 192 225 234 193 169 100 83 335 282 299 323 35 283 255 219 224 243 270 261 263 276 287 276 306 316 329 323 324 286 245 267 266 251
140 150 161 143 164 232 262 213 232 243 222 248 303 261 315 355 311 344 324 280 225 206 204 233 252 224 202 177 40 313 300 278 253 266 236 118 135 263 260 294 265 293 319 283 288 307 314 294 272 248 272 276 275 269
142 139 154 142 176 218 247 209 220 226 213 208 175 165 206 218 230 276 231 232 234 261 263 226 223 232 209 210 179 216 255 275 259 282 241 188 128 114 58 355 349 323 278 293 333 332 319 307 296 293 294 283 279 268
154 123 145 152 192 258 267 233 219 219 198 295 354 235 229 211 216 208 258 254 255 232 241 245 254 233 254 223 240 248 267 239 299 340 246 174 205 315 333 336 354 353 356 358 350 346 337 346 335 312 301 300 281 283
143 167 145 227 214 222 243 200 152 211 193 149 238 249 208 179 166 227 252 237 229 229 246 256 234 232 237 255 280 261 242 284 260 172 14 342 343 349 38 55 8 351 340 329 320 6 4 350 356 352 347 328 311 318
136 175 182 201 168 222 224 160 198 213 201 196 234 281 166 198 226 283 277 233 211 251 245 236 181 202 211 196 239 333 111 125 110 64 112 156 91 335 359 352 8 17 4 357 356 325 329 322 322 328 322 336 335 324
168 190 219 221 227 284 317 345 116 148 212 218 178 200 138 131 258 245 212 153 139 147 115 88 140 175 164 153 142 130 106 45 30 79 119 61 51 7 333 322 325 313 312 312 311 309 319 318 301 294 314 320 320 318
233 231 199 193 193 220 301 221 202 204 184 184 199 198 214 130 212 176 157 161 146 121 98 84 77 59 50 143 130 115 105 102 92 63 120 277 327 329 342 325 319 287 299 309 321 314 309 328 310 305 312 315 318 321
218 205 179 163 169 188 258 291 280 239 211 171 178 69 53 59 74 82 93 114 116 106 87 74 62 63 73 94 121 117 104 70 91 29 9 337 342 10 56 27 326 321 318 321 344 352 353 338 329 325 320 321 304 289
202 163 171 167 213 210 208 195 138 107 108 103 102 97 80 68 73 87 89 79 81 79 83 57 88 75 56 63 80 110 42 35 44 29 15 4 339 341 342 0 7 4 345 328 309 314 331 338 324 302 305 337 319 315
169 178 183 209 112 99 102 104 114 115 106 100 102 99 88 66 64 66 68 68 70 68 61 75 60 56 75 62 63 64 61 51 41 11 347 341 339 334 327 329 331 334 334 343 359 350 6 16 25 25 16 9 3 4
127 95 94 92 87 96 96 91 95 96 90 81 77 97 105 80 64 69 77 72 72 62 56 55 57 53 59 59 53 51 32 19 21 10 346 337 332 330 330 332 333 328 338 343 359 1 358 2 359 358 16 75 31 15
96 87 88 88 94 99 92 89 83 76 74 76 73 84 85 84 70 23 41 29 32 39 26 17 17 49 65 46 37 40 33 29 29 4 355 356 346 349 354 356 350 348 344 338 336 338 338 340 339 345 346 338 336 332
Wind_Speed_850mb
54 50 41 37 37 32 29 29 25 23 27 27 28 27 23 21 19 15 11 13 12 15 54 62 47 23 25 16 4 18 17 11 11 8 5 5 2 4 2 5 7 4 7 5 6 10 9 48 3 4 3 27 15 6
52 51 44 39 37 32 31 28 23 21 24 24 28 27 25 23 21 16 13 21 19 29 46 58 67 73 74 64 49 13 12 15 5 7 3 3 4 3 3 7 6 3 6 3 5 6 8 22 19 28 26 16 19 32
53 48 43 40 37 33 31 27 23 23 24 23 31 26 27 23 20 19 16 19 27 30 56 27 15 6 12 31 46 28 21 13 8 2 6 2 6 6 4 6 3 3 7 5 7 6 6 23 28 34 22 17 16 21
52 46 44 40 37 33 29 26 23 20 23 24 31 28 26 22 18 18 16 13 19 13 11 18 24 41 18 26 29 41 52 19 16 15 8 7 6 16 9 8 5 10 8 7 6 17 24 24 12 22 6 6 14 15
49 49 44 41 38 33 28 26 21 23 20 27 29 27 25 20 16 15 17 13 19 10 10 34 60 16 16 12 25 30 50 56 49 10 2 7 6 7 6 4 6 12 7 7 8 43 27 32 27 23 15 6 6 8
51 50 48 43 36 31 27 24 17 23 26 29 28 27 23 18 14 8 8 8 10 10 11 8 22 26 21 23 26 31 45 54 47 10 9 11 7 3 2 5 10 17 19 13 6 30 15 4 20 23 12 6 9 9
54 51 50 41 36 28 27 23 21 24 30 26 28 20 24 21 17 13 4 11 11 13 8 15 17 15 29 20 17 30 36 22 24 31 13 19 41 3 2 7 17 20 21 20 19 9 18 20 10 10 17 7 3 3
56 52 44 41 34 30 27 21 26 29 25 28 29 24 23 16 16 19 10 16 15 9 9 5 9 16 33 3 12 26 27 23 15 25 17 6 9 5 5 18 30 22 18 21 22 22 10 17 27 25 19 11 11 5
58 58 54 43 39 34 27 25 32 32 31 27 29 22 16 13 9 2 4 7 15 12 6 6 4 7 25 15 9 8 17 4 13 9 15 8 4 6 14 30 35 35 23 15 8 16 35 38 26 14 15 17 14 13
50 52 53 35 36 32 29 31 37 35 36 32 25 13 8 3 12 5 4 6 12 11 12 11 10 7 17 14 11 11 8 7 2 11 14 9 9 15 24 46 41 25 17 11 12 32 22 23 19 17 18 19 16 14
51 47 43 40 34 31 30 39 42 43 40 33 14 8 9 12 9 6 7 10 11 7 15 16 32 13 12 3 7 5 7 3 1 9 8 1 3 2 34 33 29 19 14 13 4 5 6 18 21 15 12 11 11 7
49 45 44 39 35 34 37 44 44 52 34 19 14 18 12 6 7 4 6 8 9 9 11 12 18 22 10 13 3 11 5 5 4 8 4 2 6 30 32 30 21 14 11 3 7 20 25 27 20 18 16 11 7 6
48 45 41 38 38 38 39 45 42 42 31 34 8 5 4 5 1 8 8 7 5 9 10 15 4 8 10 14 10 6 8 6 25 1 2 7 6 31 26 29 34 30 31 33 37 34 27 24 21 14 12 14 15 9
47 43 40 39 38 36 46 48 48 41 23 8 10 4 7 8 9 10 8 7 15 25 8 19 5 4 5 2 7 5 5 4 5 2 7 3 20 34 36 39 35 36 27 28 24 21 20 13 8 8 13 13 24 21
43 45 39 37 36 36 56 56 52 47 10 11 10 8 12 25 21 21 34 39 48 44 25 7 1 4 5 2 2 4 5 7 8 6 4 34 37 22 28 26 29 27 28 26 16 12 7 7 10 10 10 21 19 6
45 40 38 36 34 51 55 58 52 40 7 5 10 7 16 7 18 26 33 17 20 19 8 7 2 1 1 3 1 1 7 10 10 5 31 34 33 25 19 15 14 15 16 20 17 15 10 9 9 10 11 9 6 13
37 20 38 40 50 50 46 54 34 8 7 8 11 17 25 28 24 30 27 23 24 10 4 3 2 4 3 4 2 2 5 7 41 27 38 32 27 24 18 11 8 15 18 18 19 12 10 8 4 5 9 6 5 6
32 32 39 46 57 50 49 16 12 10 10 16 14 13 8 23 29 25 16 7 14 11 4 1 4 3 4 6 4 7 7 36 52 26 29 23 16 12 5 12 12 8 7 6 5 9 7 5 5 9 14 11 13 11
31 32 41 45 60 34 11 9 6 4 19 17 21 35 35 37 32 26 7 1 9 13 6 7 3 2 2 6 12 23 19 21 41 10 16 13 14 10 11 11 13 12 10 11 11 13 14 11 10 16 15 15 19 14
37 26 39 50 50 11 11 9 16 6 8 11 21 23 18 24 29 27 3 6 6 4 4 0 2 4 5 19 18 22 22 16 13 6 10 6 8 11 14 14 15 14 14 13 11 8 11 8 12 17 21 15 18 27
34 41 49 48 31 8 7 12 13 12 14 11 19 27 16 21 24 23 8 7 3 7 6 6 8 6 4 8 4 7 19 13 4 23 36 17 17 13 17 16 12 11 14 9 14 11 12 19 20 15 18 23 20 23
45 49 45 31 11 2 4 14 9 5 8 15 11 5 5 4 5 6 11 5 7 11 13 9 13 8 13 9 8 8 26 27 21 22 11 4 1 6 18 16 10 7 9 11 17 22 18 13 10 12 18 19 23 22
50 40 26 8 8 7 8 8 11 8 6 4 6 2 4 4 3 4 4 6 6 9 22 18 11 6 4 10 7 10 20 25 17 10 8 7 12 9 4 8 10 10 8 10 14 16 19 21 24 22 23 28 28 26
37 11 7 6 5 6 6 7 10 5 2 1 1 3 2 6 3 5 4 5 8 12 11 23 23 18 18 32 23 28 21 8 9 11 6 17 5 8 17 16 7 12 7 10 17 27 19 19 19 23 25 20 18 19
7 8 7 9 12 7 6 4 3 3 6 6 3 6 5 8 2 3 5 5 5 14 15 17 22 30 28 19 21 23 10 11 15 12 3 12 14 13 5 4 9 15 10 18 14 18 19 22 19 17 17 17 16 15
5 10 11 11 10 8 6 7 9 7 5 7 7 3 2 3 4 4 4 10 17 18 13 6 19 26 25 14 9 6 14 17 4 7 4 4 2 4 8 13 16 10 11 12 10 13 19 20 20 25 23 24 22 23
7 8 8 11 3 3 4 3 6 3 6 6 4 5 3 5 4 7 9 18 21 23 20 12 9 7 10 10 18 21 8 14 16 8 8 6 9 11 15 18 20 15 16 23 31 35 29 27 26 22 24 25 32 34
6 5 8 13 9 6 5 6 7 7 8 14 5 8 6 7 8 9 21 26 15 11 26 27 24 18 4 10 16 14 10 11 13 9 3 3 8 15 21 12 22 21 24 32 40 27 24 38 26 27 33 35 40 37
9 12 18 12 6 6 7 4 7 10 14 23 8 7 11 26 39 24 21 37 29 30 32 24 20 14 10 19 17 11 7 9 7 4 10 18 18 12 16 11 13 21 26 28 24 29 38 28 14 21 31 37 38 42
13 34 8 12 9 15 24 38 13 49 58 60 57 57 61 59 55 49 44 38 38 33 20 22 25 26 32 20 13 6 10 10 15 13 16 18 12 19 22 21 23 17 16 22 26 24 30 36 22 23 27 25 27 26
19 34 26 27 21 47 58 66 61 56 59 59 55 61 45 51 62 51 44 39 36 27 28 28 32 32 30 33 29 24 20 13 9 6 8 11 18 22 23 22 21 25 21 18 20 18 15 14 15 17 20 21 19 14
34 43 38 21 33 52 68 59 52 55 51 50 39 36 32 39 42 43 37 35 33 32 35 28 24 24 21 22 18 18 20 20 10 7 12 20 29 31 30 22 18 18 16 15 11 10 16 18 17 17 12 10 5 8
44 35 27 21 29 34 37 36 42 44 52 44 44 40 40 27 10 14 21 21 26 31 27 26 23 15 12 15 19 23 19 14 12 16 20 19 19 22 20 18 18 17 17 19 24 27 30 29 26 23 20 21 23 26
Wind_Direction_850mb
249 246 239 240 245 249 254 260 263 259 248 242 216 216 220 238 254 256 178 248 279 272 278 280 267 243 273 284 230 314 347 348 13 59 58 311 71 306 352 195 303 342 349 353 318 42 3 345 93 298 213 148 162 204
244 235 231 232 239 244 250 254 258 247 244 232 207 211 222 235 246 255 233 209 276 279 268 283 280 272 269 265 258 292 292 299 258 97 225 229 346 343 286 332 186 351 163 226 68 173 260 348 58 65 71 105 109 108
236 232 225 228 233 238 244 249 248 247 235 216 201 207 219 231 242 253 259 273 279 298 303 275 301 23 272 253 252 229 263 229 236 14 144 148 265 144 356 272 288 257 162 169 134 47 34 29 67 73 53 78 84 81
227 230 221 224 231 234 238 241 243 240 221 208 191 206 218 231 247 254 265 277 300 300 282 290 264 301 265 230 244 254 240 229 262 276 221 198 222 194 203 226 169 195 132 151 93 115 65 51 107 76 187 127 75 136
222 225 217 220 229 230 233 237 236 226 211 186 195 201 215 223 244 255 283 283 247 252 285 289 307 260 220 239 232 232 233 241 259 247 196 244 181 143 241 68 279 166 186 181 211 180 152 196 202 266 184 206 171 153
222 224 217 215 223 227 228 229 226 203 186 187 198 204 210 216 237 250 181 144 156 228 286 306 311 303 235 246 237 238 232 241 232 236 239 259 253 233 153 193 258 223 208 177 187 185 162 197 169 172 215 226 241 249
217 218 212 211 210 216 223 216 203 189 180 188 192 202 204 220 226 220 204 167 205 250 265 300 296 285 312 259 231 220 227 228 234 246 237 246 273 202 155 205 226 218 247 214 211 206 226 212 219 237 269 252 65 45
214 208 200 203 203 207 211 200 186 177 178 186 186 207 202 223 250 260 235 228 226 276 240 273 275 308 10 256 191 227 220 232 231 232 259 232 290 201 243 246 184 186 223 227 229 238 224 176 156 126 118 88 62 50
209 199 194 194 199 196 194 187 178 176 176 179 174 183 197 230 226 154 237 229 220 239 274 265 264 275 349 357 306 258 210 192 226 186 229 196 259 220 230 189 187 190 200 190 313 228 162 144 131 109 73 58 69 69
197 199 190 179 195 188 184 179 176 172 174 169 174 167 197 179 164 178 234 223 205 211 225 243 259 268 334 336 327 320 228 206 244 241 155 166 241 269 246 188 172 176 209 250 233 155 155 140 146 124 87 84 70 90
177 177 181 189 185 183 175 173 166 163 162 163 171 169 143 143 179 231 228 196 193 234 218 236 225 226 265 185 256 260 294 247 189 274 140 201 327 109 152 166 166 169 199 203 195 211 175 155 148 128 131 117 83 84
173 179 184 183 181 175 175 169 169 172 165 161 145 126 144 192 230 243 230 248 188 229 213 201 218 212 238 232 197 339 277 345 247 320 73 83 236 143 148 149 131 125 118 137 158 130 132 134 143 139 140 142 125 100
176 179 177 177 180 174 171 166 169 170 157 144 118 151 156 209 143 215 220 239 230 224 211 177 217 204 222 228 88 83 288 289 318 350 241 227 111 152 145 129 110 103 99 97 105 128 134 146 160 177 203 204 215 221
171 170 174 175 178 173 163 159 175 166 145 126 164 146 212 208 230 206 220 208 268 301 265 179 168 232 316 69 153 153 244 277 312 311 220 161 106 115 129 122 117 106 101 99 102 111 120 140 160 219 254 252 262 260
161 164 176 175 175 165 160 172 173 173 162 173 172 214 218 234 259 270 255 268 279 284 252 144 218 204 287 90 28 85 35 349 283 222 220 138 127 142 121 119 109 108 106 105 100 83 52 8 0 343 329 310 279 222
165 169 175 172 163 157 163 175 181 178 186 220 231 272 291 272 288 290 287 279 347 354 319 135 89 48 296 117 29 252 159 176 247 237 142 141 132 132 130 121 105 102 98 99 90 71 50 25 8 353 347 359 114 188
155 148 169 160 158 167 170 176 173 185 205 242 250 246 279 290 276 300 328 1 351 274 308 119 142 226 96 47 296 132 256 279 306 172 150 156 161 159 162 151 115 115 107 81 71 75 48 15 303 324 352 338 214 212
140 140 153 160 158 161 158 145 143 194 243 256 261 274 309 276 295 312 12 220 354 250 243 213 352 14 215 185 179 225 307 341 331 196 153 151 165 161 148 142 137 142 180 143 31 7 13 360 290 313 303 276 227 226
142 144 155 161 157 142 140 161 132 240 245 261 270 275 279 295 312 346 295 148 307 358 6 7 52 117 287 45 357 346 11 355 298 178 139 146 169 174 181 183 192 215 235 267 305 319 307 295 286 291 288 261 245 250
125 131 154 153 155 130 132 145 190 247 261 254 270 276 261 265 281 304 281 23 9 1 11 311 254 72 73 72 40 356 343 355 324 246 168 167 210 222 232 253 254 260 291 305 317 2 352 334 289 295 262 253 259 249
130 140 150 158 163 135 190 172 188 217 246 260 285 259 247 243 281 277 253 319 216 192 225 234 193 169 100 83 335 282 299 323 35 283 255 219 224 243 270 261 263 276 287 276 306 316 329 323 324 286 245 267 266 251
140 150 161 143 164 232 262 213 232 243 222 248 303 261 315 355 311 344 324 280 225 206 204 233 252 224 202 177 40 313 300 278 253 266 236 118 135 263 260 294 265 293 319 283 288 307 314 294 272 248 272 276 275 269
142 139 154 142 176 218 247 209 220 226 213 208 175 165 206 218 230 276 231 232 234 261 263 226 223 232 209 210 179 216 255 275 259 282 241 188 128 114 58 355 349 323 278 293 333 332 319 307 296 293 294 283 279 268
154 123 145 152 192 258 267 233 219 219 198 295 354 235 229 211 216 208 258 254 255 232 241 245 254 233 254 223 240 248 267 239 299 340 246 174 205 315 333 336 354 353 356 358 350 346 337 346 335 312 301 300 281 283
143 167 145 227 214 222 243 200 152 211 193 149 238 249 208 179 166 227 252 237 229 229 246 256 234 232 237 255 280 261 242 284 260 172 14 342 343 349 38 55 8 351 340 329 320 6 4 350 356 352 347 328 311 318
136 175 182 201 168 222 224 160 198 213 201 196 234 281 166 198 226 283 277 233 211 251 245 236 181 202 211 196 239 333 111 125 110 64 112 156 91 335 359 352 8 17 4 357 356 325 329 322 322 328 322 336 335 324
168 190 219 221 227 284 317 345 116 148 212 218 178 200 138 131 258 245 212 153 139 147 115 88 140 175 164 153 142 130 106 45 30 79 119 61 51 7 333 322 325 313 312 312 311 309 319 318 301 294 314 320 320 318
233 231 199 193 193 220 301 221 202 204 184 184 199 198 214 130 212 176 157 161 146 121 98 84 77 59 50 143 130 115 105 102 92 63 120 277 327 329 342 325 319 287 299 309 321 314 309 328 310 305 312 315 318 321
218 205 179 163 169 188 258 291 280 239 211 171 178 69 53 59 74 82 93 114 116 106 87 74 62 63 73 94 121 117 104 70 91 29 9 337 342 10 56 27 326 321 318 321 344 352 353 338 329 325 320 321 304 289
202 163 171 167 213 210 208 195 138 107 108 103 102 97 80 68 73 87 89 79 81 79 83 57 88 75 56 63 80 110 42 35 44 29 15 4 339 341 342 0 7 4 345 328 309 314 331 338 324 302 305 337 319 315
169 178 183 209 112 99 102 104 114 115 106 100 102 99 88 66 64 66 68 68 70 68 61 75 60 56 75 62 63 64 61 51 41 11 347 341 339 334 327 329 331 334 334 343 359 350 6 16 25 25 16 9 3 4
127 95 94 92 87 96 96 91 95 96 90 81 77 97 105 80 64 69 77 72 72 62 56 55 57 53 59 59 53 51 32 19 21 10 346 337 332 330 330 332 333 328 338 343 359 1 358 2 359 358 16 75 31 15
96 87 88 88 94 99 92 89 83 76 74 76 73 84 85 84 70 23 41 29 32 39 26 17 17 49 65 46 37 40 33 29 29 4 355 356 346 349 354 356 350 348 344 338 336 338 338 340 339 345 346 338 336 332